Saint Charles, IL

6:36 AM CST on December 04, 2016 (GMT -0600)
Du Page

Weather History for KDPA - August, 2014

Change the Weather History Date:

Sunday, August 17, 2014

  Actual Average Record
Temperature  
Mean Temperature 69 °F 72 °F  
Max Temperature 77 °F 83 °F 87 °F (2015)
Min Temperature 61 °F 62 °F 51 °F (2013)
Degree Days  
Heating Degree Days 0 0  
Month to date heating degree days 0 0  
Since 1 June heating degree days 27 38  
Since 1 July heating degree days 9 2  
Cooling Degree Days 4 7  
Month to date cooling degree days 99 133  
Year to date cooling degree days 529 635  
Since 1 June cooling degree days 460 589  
Growing Degree Days 20 (Base 50)    
Moisture  
Dew Point 63 °F    
Average Humidity 82    
Maximum Humidity 94    
Minimum Humidity 65    
Precipitation  
Precipitation 0.00 in 0.16 in 0.70 in (1997)
Month to date precipitation 2.32 2.68  
Year to date precipitation 19.08 23.71  
Sea Level Pressure  
Sea Level Pressure 29.96 in    
Wind  
Wind Speed 8 mph (ENE)    
Max Wind Speed 14 mph    
Max Gust Speed 16 mph    
Visibility 7 miles    
Events      
T = Trace of Precipitation, MM = Missing Value Source: NWS Daily Summary

Daily Weather History Graph

Daily Weather History Graph

Search for Another Location

Airport or City:

Trip Planner

Search our weather history database for the weather conditions in past years. The results will help you decide how hot, cold, wet, or windy it might be!

Date:

Astronomy

Aug. 17, 2014 Rise Set
Actual Time 6:03 AM CDT 7:50 PM CDT
Civil Twilight 5:33 AM CDT 8:19 PM CDT
Nautical Twilight 4:56 AM CDT 8:56 PM CDT
Astronomical Twilight 4:17 AM CDT 9:34 PM CDT
Moon No Moon Rise 1:56 PM CDT (8/17)
Length of Visible Light 14h 46m
Length of Day
13h 47m
Waning Gibbous, 48% of the Moon is Illuminated
Aug 17
Waning Gibbous
Aug 25
New
Sep 2
First Quarter
Sep 8
Full
Sep 15
Last Quarter

Hourly Weather History & Observations

Time (CDT) Temp. Dew Point Humidity Pressure Visibility Wind Dir Wind Speed Gust Speed Precip Events Conditions
12:52 AM 66.0 °F 63.0 °F 90% 29.93 in 10.0 mi South 3.5 mph - N/A   Clear
2:52 AM 64.0 °F 61.0 °F 90% 29.92 in 8.0 mi Calm Calm - N/A   Clear
3:52 AM 63.0 °F 60.1 °F 90% 29.92 in 8.0 mi Calm Calm - N/A   Clear
4:52 AM 63.0 °F 61.0 °F 93% 29.93 in 7.0 mi Calm Calm - N/A   Overcast
5:52 AM 64.9 °F 62.1 °F 90% 29.94 in 8.0 mi NNE 3.5 mph - N/A   Overcast
6:47 AM 66.2 °F 64.4 °F 94% 29.96 in 5.0 mi ENE 9.2 mph - N/A   Mostly Cloudy
6:50 AM 66.2 °F 64.4 °F 94% 29.96 in 1.0 mi ENE 10.4 mph - N/A   Mostly Cloudy
6:52 AM 66.0 °F 64.0 °F 93% 29.95 in 1.0 mi ENE 12.7 mph - N/A   Mostly Cloudy
7:52 AM 68.0 °F 64.9 °F 90% 29.96 in 1.0 mi ENE 8.1 mph - N/A   Overcast
8:13 AM 68.0 °F 64.9 °F 90% 29.97 in 1.0 mi NE 9.2 mph - N/A   Overcast
8:52 AM 68.0 °F 64.9 °F 90% 29.97 in 1.0 mi NE 9.2 mph - N/A   Overcast
9:32 AM 68.0 °F 64.0 °F 87% 29.98 in 8.0 mi NE 9.2 mph - N/A   Overcast
9:52 AM 68.0 °F 64.0 °F 87% 29.97 in 7.0 mi NE 10.4 mph - N/A   Overcast
10:52 AM 70.0 °F 64.0 °F 81% 29.98 in 5.0 mi NE 9.2 mph - N/A   Haze
11:05 AM 71.1 °F 64.0 °F 78% 29.99 in 7.0 mi NE 9.2 mph - N/A   Overcast
11:52 AM 73.9 °F 64.9 °F 73% 29.97 in 9.0 mi ENE 10.4 mph - N/A   Mostly Cloudy
12:25 PM 75.0 °F 64.9 °F 71% 29.97 in 9.0 mi NE 12.7 mph - N/A   Scattered Clouds
12:52 PM 75.0 °F 64.9 °F 71% 29.95 in 9.0 mi NE 10.4 mph - N/A   Clear
1:41 PM 77.0 °F 64.9 °F 66% 29.97 in 10.0 mi ENE 10.4 mph - N/A   Mostly Cloudy
1:52 PM 77.0 °F 64.9 °F 66% 29.96 in 10.0 mi NE 12.7 mph - N/A   Mostly Cloudy
2:48 PM 77.0 °F 64.4 °F 65% 29.97 in 9.0 mi Variable 6.9 mph - N/A   Scattered Clouds
2:52 PM 75.9 °F 64.9 °F 69% 29.96 in 9.0 mi ENE 11.5 mph - N/A   Scattered Clouds
3:00 PM 75.9 °F 64.9 °F 69% 29.97 in 9.0 mi ENE 9.2 mph - N/A   Mostly Cloudy
3:52 PM 75.0 °F 64.0 °F 69% 29.96 in 9.0 mi ENE 10.4 mph - N/A   Overcast
4:52 PM 73.0 °F 63.0 °F 71% 29.96 in 10.0 mi East 9.2 mph - N/A   Mostly Cloudy
5:08 PM 73.9 °F 63.0 °F 68% 29.96 in 10.0 mi Variable 6.9 mph - N/A   Partly Cloudy
5:52 PM 72.0 °F 62.1 °F 71% 29.94 in 10.0 mi ENE 9.2 mph - N/A   Clear
6:52 PM 71.1 °F 63.0 °F 75% 29.94 in 10.0 mi NE 9.2 mph - N/A   Clear
7:52 PM 68.0 °F 61.0 °F 78% 29.93 in 10.0 mi ENE 8.1 mph - N/A   Clear
8:52 PM 64.9 °F 61.0 °F 87% 29.96 in 9.0 mi ENE 9.2 mph - N/A   Partly Cloudy
9:17 PM 64.9 °F 61.0 °F 87% 29.97 in 9.0 mi ENE 9.2 mph - N/A   Mostly Cloudy
9:52 PM 64.9 °F 62.1 °F 90% 29.96 in 7.0 mi ENE 9.2 mph - N/A   Overcast
10:52 PM 64.9 °F 62.1 °F 90% 29.96 in 5.0 mi ENE 6.9 mph - N/A   Overcast
11:03 PM 64.9 °F 63.0 °F 93% 29.97 in 2.0 mi NE 6.9 mph - N/A   Overcast
11:52 PM 64.9 °F 62.1 °F 90% 29.95 in 2.0 mi NE 9.2 mph - N/A   Overcast
11:59 PM 64.9 °F 62.1 °F 90% 29.96 in 4.0 mi NE 6.9 mph - N/A   Overcast